Location: Tel Aviv
(32.0670°N, 34.7670°E)
Time: 11:24:28
(UTC+03:00)

Transit 2A - Pass Details

Date: 31 January 2022
Orbit: 598 x 960 km, 66.7° (Epoch: 20 May)

Event Time Altitude Azimuth Distance (km) Brightness Sun altitude
Rises 20:21:58 0° 311° (NW) 3,439 10.0 -40.0°
Reaches altitude 10° 20:25:52 10° 286° (WNW) 2,414 9.2 -40.8°
Maximum altitude 20:28:24 13° 259° (W) 2,126 8.8 -41.4°
Enters shadow 20:30:00 12° 240° (WSW) 2,185 8.8 -41.7°
Drops below altitude 10° 20:30:51 10° 231° (SW) 2,292 - -41.9°
Sets 20:34:23 0° 204° (SSW) 3,124 - -42.6°
